User: anonymous   Login
Location: Bidart
(43.4376°N, 1.5913°W)
Time: 08:51:20
(UTC+00:00)
Language:

DELTA 2 R/B (1) - Orbit

View from above orbital plane
View from above orbital plane
View from above satellite
View from above satellite

Ground track
Ground track

The orbit is defined by the following mean orbital elements,

1 27665U          26138.15811792 +.00000000 +00000-0 +58443-4 0 00001
2 27665  39.5755  78.0303 0009361 211.8323 163.7588 14.29548249    08
Epoch (UTC): 18 May 2026 03:47:41
Eccentricity: 0.0009361
inclination: 39.5755°
perigee height: 787 km
apogee height: 800 km
right ascension of ascending node: 78.0303°
argument of perigee: 211.8323°
revolutions per day: 14.29548249
mean anomaly at epoch: 163.7588°

The dashed part of the orbit path shows where the satellite is in the earth's shadow,  

DLR